Nashua, NH

12:19 AM EST on December 12, 2019 (GMT -0500)
Boire

Weather History for KASH - June, 2019

Change the Weather History Date:

Friday, June 7, 2019

  Actual Average Record
Temperature  
Mean Temperature 67 °F -  
Max Temperature 82 °F 74 °F 95 °F (1999)
Min Temperature 52 °F 50 °F 32 °F (1958)
Cooling Degree Days 2    
Growing Degree Days 17 (Base 50)    
Moisture  
Dew Point 51 °F    
Average Humidity 62    
Maximum Humidity 100    
Minimum Humidity 28    
Precipitation  
Precipitation 0.00 in - - ()
Sea Level Pressure  
Sea Level Pressure 29.95 in    
Wind  
Wind Speed 3 mph ()    
Max Wind Speed 9 mph    
Max Gust Speed 16 mph    
Visibility 10.0 miles    
Events      
Averages and records for this station are not official NWS values.
T = Trace of Precipitation, MM = Missing Value Source: Averaged Metar Reports

Daily Weather History Graph

Daily Weather History Graph

Search for Another Location

Airport or City:

Astronomy

Jun. 07, 2019 Rise Set
Actual Time 5:08 AM EDT 8:21 PM EDT
Civil Twilight 4:33 AM EDT 8:56 PM EDT
Nautical Twilight 3:48 AM EDT 9:41 PM EDT
Astronomical Twilight 2:54 AM EDT 10:36 PM EDT
Moon 9:23 AM EDT (6/7) No Moon Set
Length of Visible Light 16h 23m
Length of Day
15h 13m
Waxing Crescent, 22% of the Moon is Illuminated
Jun 7
Waxing Crescent
Jun 10
First Quarter
Jun 17
Full
Jun 25
Last Quarter
Jul 2
New

Hourly Weather History & Observations

Time (EDT) Temp. Dew Point Humidity Pressure Visibility Wind Dir Wind Speed Gust Speed Precip Events Conditions
12:56 AM 59.0 °F 59.0 °F 100% 29.91 in 10.0 mi WNW 3.5 mph - N/A   Clear
1:56 AM 57.0 °F 57.0 °F 100% 29.91 in 10.0 mi WNW 5.8 mph - N/A   Clear
2:56 AM 55.9 °F 55.9 °F 100% 29.92 in 10.0 mi Calm Calm - N/A   Partly Cloudy
3:56 AM 54.0 °F 54.0 °F 100% 29.92 in 10.0 mi Calm Calm - N/A   Clear
4:56 AM 52.0 °F 52.0 °F 100% 29.93 in 10.0 mi NW 4.6 mph - N/A   Clear
5:56 AM 53.1 °F 52.0 °F 96% 29.95 in 10.0 mi WNW 4.6 mph - N/A   Clear
6:56 AM 57.0 °F 54.0 °F 89% 29.96 in 10.0 mi WNW 3.5 mph - N/A   Clear
7:56 AM 62.1 °F 54.0 °F 75% 29.97 in 10.0 mi Calm Calm - N/A   Scattered Clouds
8:56 AM 66.9 °F 52.0 °F 59% 29.98 in 10.0 mi North 4.6 mph - N/A   Clear
9:56 AM 72.0 °F 45.0 °F 38% 29.98 in 10.0 mi ENE 5.8 mph - N/A   Clear
10:56 AM 73.9 °F 46.0 °F 37% 29.99 in 10.0 mi Variable 6.9 mph - N/A   Clear
11:56 AM 75.0 °F 46.9 °F 37% 29.97 in 10.0 mi Variable 3.5 mph - N/A   Clear
12:56 PM 77.0 °F 46.0 °F 33% 29.96 in 10.0 mi WNW 6.9 mph - N/A   Clear
1:56 PM 80.1 °F 48.9 °F 34% 29.94 in 10.0 mi Variable 5.8 mph - N/A   Scattered Clouds
2:56 PM 81.0 °F 45.0 °F 28% 29.92 in 10.0 mi Variable 5.8 mph - N/A   Scattered Clouds
3:56 PM 81.0 °F 45.0 °F 28% 29.92 in 10.0 mi West 9.2 mph 16.1 mph N/A   Scattered Clouds
4:56 PM 82.0 °F 46.9 °F 29% 29.91 in 10.0 mi West 8.1 mph - N/A   Scattered Clouds
5:56 PM 82.0 °F 46.9 °F 29% 29.91 in 10.0 mi West 6.9 mph - N/A   Scattered Clouds
6:56 PM 81.0 °F 50.0 °F 34% 29.91 in 10.0 mi West 3.5 mph - N/A   Scattered Clouds
7:56 PM 73.0 °F 55.9 °F 55% 29.93 in 10.0 mi SE 5.8 mph - N/A   Partly Cloudy
8:56 PM 70.0 °F 52.0 °F 53% 29.95 in 10.0 mi Calm Calm - N/A   Clear
9:56 PM 66.0 °F 55.0 °F 68% 29.99 in 10.0 mi Calm Calm - N/A   Clear
10:56 PM 62.1 °F 57.0 °F 84% 30.01 in 10.0 mi West 3.5 mph - N/A   Scattered Clouds
11:56 PM 61.0 °F 57.9 °F 90% 30.01 in 10.0 mi Calm Calm - N/A   Partly Cloudy